[[{"header":{"parameterUnit":"m.s-1","parameterCategory":1,"la1":30.2991,"la2":30.254,"lo1":-89.0895,"lo2":-89.0444,"dy":0.0017,"dx":0.0017,"nx":28,"ny":28,"refTime":"2024-02-25T03:00:00:Z","depth":0,"parameterNumber":2,"parameterNumberName":"U-component_of_WINDS"},"data":[0,0,0,0,0,0,0,0,0,0,0,0,0,0,0,0,0,0,0,0,0,0,0,0,0,0,0,0,0,0,0,0,0,0,0,0,0,0,0,0,0,0,0,0,0,0,0,0,0,0,0,0,0,0,0,0,0,0,-0.8556,-0.8555,0,-0.8485,-0.8484,-0.8483,-0.8433,-0.8432,-0.8432,-0.8432,-0.8358,-0.8356,-0.8355,0,0,0,0,0,0,0,0,0,0,0,0,0,-0.8648,-0.8647,-0.8556,-0.8555,-0.8555,-0.8485,-0.8484,-0.8483,-0.8433,-0.8432,-0.8432,-0.8431,-0.8359,-0.8357,-0.8355,0,0,0,0,0,0,0,0,0,0,0,0,0,-0.8596,-0.8646,-0.8556,-0.8521,-0.8517,-0.8485,-0.8484,-0.8483,-0.8433,-0.8432,-0.8432,-0.8431,-0.8359,-0.8357,-0.8355,-0.8352,0,0,-0.8347,-0.8346,0,0,0,0,0,0,0,0,-0.8599,-0.8593,-0.8527,-0.8523,-0.8519,-0.8467,-0.849,-0.8439,-0.8433,-0.8465,-0.8432,-0.8431,-0.8395,-0.8389,-0.8377,-0.8349,-0.8346,-0.8347,-0.8346,-0.8345,-0.8344,0,0,0,0,0,0,0,-0.8603,-0.8595,-0.8528,-0.8526,-0.8521,-0.8509,-0.85,-0.848,-0.8434,-0.8462,-0.8458,-0.8451,-0.8392,-0.838,-0.8375,-0.8344,-0.8347,-0.8345,-0.8344,-0.8343,-0.831,-0.8311,0,0,0,0,0,0,-0.8612,-0.8599,-0.853,-0.8526,-0.8558,-0.8507,-0.8498,-0.8484,-0.8434,-0.8426,-0.8451,-0.8448,-0.8384,-0.8378,-0.8373,-0.8366,-0.8345,-0.8342,-0.8341,-0.831,-0.831,-0.8311,0,0,0,0,0,0,-0.8614,-0.8606,-0.8533,-0.8561,-0.8551,-0.8507,-0.8491,-0.8483,-0.8471,-0.8426,-0.8417,-0.8447,-0.8383,-0.8376,-0.8358,-0.8363,-0.8341,-0.8339,-0.8309,-0.831,-0.8311,-0.8354,0,0,0,0,0,0,-0.8617,-0.8607,-0.8606,-0.8562,-0.855,-0.852,-0.8492,-0.8482,-0.8467,-0.8463,-0.8419,-0.8412,-0.8382,-0.8361,-0.8355,-0.8359,-0.8337,-0.8308,-0.8309,-0.831,-0.8352,-0.8356,-0.836,0,0,0,0,0,-0.862,-0.8621,-0.8606,-0.8598,-0.8547,-0.852,-0.8513,-0.848,-0.8467,-0.8466,-0.8437,-0.8413,-0.8364,-0.836,-0.8353,-0.8356,-0.8308,-0.8309,-0.831,-0.835,-0.8355,-0.836,0,0,0,0,0,0,-0.8667,-0.8614,-0.8598,-0.8584,-0.8557,-0.8512,-0.8508,-0.8486,-0.8462,-0.8459,-0.8418,-0.8409,-0.8395,-0.8374,-0.8371,-0.8351,-0.8333,-0.8333,-0.8366,-0.837,-0.8374,-0.8379,-0.8335,0,0,0,0,0,-0.8676,-0.8658,-0.8613,-0.8605,-0.8593,-0.8553,-0.854,-0.8517,-0.8487,-0.8475,-0.8445,-0.8417,-0.8395,-0.8382,-0.8359,-0.8349,-0.8339,-0.8348,-0.8352,-0.8355,-0.8355,-0.8348,-0.8352,-0.8315,-0.8315,-0.8315,0,0,-0.8693,-0.8662,-0.8654,-0.8614,-0.859,-0.8573,-0.8544,-0.8527,-0.8513,-0.8472,-0.8453,-0.8431,-0.8397,-0.8383,-0.8375,-0.8364,-0.8363,-0.8357,-0.836,-0.8358,-0.835,-0.8353,-0.8357,-0.8316,-0.8316,-0.8316,0,0,-0.8716,-0.8692,-0.8682,-0.8659,-0.8624,-0.8598,-0.8596,-0.8554,-0.8537,-0.8517,-0.8486,-0.847,-0.8433,-0.841,-0.8394,-0.8409,-0.8386,-0.8403,-0.8424,-0.8417,-0.842,-0.8423,-0.8428,-0.843,-0.8404,-0.8404,-0.8404,0,-0.8743,-0.8715,-0.868,-0.8665,-0.8648,-0.8611,-0.8601,-0.858,-0.854,-0.8529,-0.8518,-0.8471,-0.8446,-0.8426,-0.843,-0.8418,-0.8414,-0.8407,-0.8423,-0.8425,-0.8426,-0.8431,-0.8433,-0.8406,-0.8406,-0.8405,-0.8405,0,-0.8749,-0.8731,-0.8728,-0.8689,-0.8672,-0.866,-0.8623,-0.861,-0.8588,-0.8563,-0.8544,-0.8512,-0.8483,-0.8476,-0.8455,-0.8453,-0.8448,-0.8431,-0.8411,-0.8433,-0.8436,-0.8438,-0.8409,-0.8408,-0.8408,-0.8407,0,0,-0.8799,-0.8742,-0.8741,-0.8723,-0.8682,-0.8667,-0.8653,-0.8624,-0.8614,-0.8587,-0.8574,-0.8545,-0.8528,-0.851,-0.8486,-0.848,-0.8494,-0.8463,-0.8462,-0.847,-0.849,-0.8503,-0.8506,-0.8479,-0.8479,-0.8479,-0.8493,0,-0.8815,-0.8788,-0.8756,-0.874,-0.8723,-0.8687,-0.8675,-0.8649,-0.8625,-0.8607,-0.8581,-0.856,-0.854,-0.8529,-0.8522,-0.8494,-0.8498,-0.8493,-0.8466,-0.8466,-0.8475,-0.8507,-0.8521,-0.8535,-0.8494,-0.8494,-0.8494,0,-0.883,-0.8806,-0.8788,-0.8748,-0.874,-0.8729,-0.8701,-0.8684,-0.8653,-0.8636,-0.8616,-0.859,-0.8574,-0.8557,-0.8534,-0.8531,-0.8519,-0.8503,-0.8503,-0.8499,-0.8481,-0.8503,-0.8539,-0.8541,-0.8496,-0.8496,-0.8496,0,-0.8868,-0.883,-0.8815,-0.8801,-0.8754,-0.8748,-0.8728,-0.8697,-0.8682,-0.8656,-0.8646,-0.862,-0.8605,-0.8585,-0.8553,-0.8544,-0.8533,-0.8514,-0.8518,-0.8519,-0.8517,-0.8517,-0.855,-0.851,-0.851,-0.851,-0.851,0,-0.8889,-0.888,-0.8831,-0.8821,-0.881,-0.8773,-0.8763,-0.874,-0.8712,-0.8698,-0.8666,-0.8653,-0.8611,-0.8593,-0.8568,-0.8552,-0.8546,-0.8532,-0.8525,-0.8534,-0.8536,-0.8525,-0.8523,-0.851,-0.851,-0.851,-0.851,0,-0.8929,-0.8896,-0.8877,-0.8834,-0.8823,-0.8817,-0.878,-0.877,-0.8745,-0.8727,-0.872,-0.8681,-0.8658,-0.8624,-0.8591,-0.8574,-0.8562,-0.8552,-0.8573,-0.8568,-0.8575,-0.8575,-0.8601,-0.8603,-0.8563,-0.8563,-0.8563,0,-0.8944,-0.8936,-0.8893,-0.8881,-0.8862,-0.8843,-0.8828,-0.8792,-0.8777,-0.8742,-0.8735,-0.871,-0.8688,-0.8653,-0.8622,-0.8596,-0.8584,-0.8596,-0.858,-0.859,-0.8584,-0.8585,-0.8584,-0.8599,-0.86,-0.86,-0.8601,0,-0.8975,-0.8959,-0.8938,-0.8912,-0.8894,-0.8871,-0.8847,-0.8839,-0.8798,-0.8783,-0.8759,-0.8742,-0.8708,-0.8684,-0.8654,-0.8634,-0.861,-0.8606,-0.8605,-0.8614,-0.8627,-0.862,-0.8582,-0.8605,-0.8605,-0.8604,-0.8604,-0.8604,-0.9003,-0.8994,-0.8962,-0.894,-0.8918,-0.8896,-0.8884,-0.8857,-0.8837,-0.8807,-0.8787,-0.8765,-0.8734,-0.8692,-0.8673,-0.8655,-0.8645,-0.8645,-0.8644,-0.8645,-0.8648,-0.863,-0.8649,-0.8649,-0.8649,-0.8649,-0.8649,0,-0.9032,-0.901,-0.8989,-0.8956,-0.8939,-0.8919,-0.8891,-0.8878,-0.8858,-0.8832,-0.8811,-0.8784,-0.876,-0.8727,-0.87,-0.8692,-0.8681,-0.8687,-0.8686,-0.8682,-0.8658,-0.8661,-0.8696,-0.8696,-0.8696,-0.8696,-0.8696,-0.8696,-0.9045,-0.9028,-0.9009,-0.8982,-0.896,-0.8937,-0.8923,-0.8903,-0.8882,-0.8853,-0.8833,-0.8812,-0.8782,-0.8754,-0.8731,-0.8722,-0.8713,-0.8722,-0.871,-0.8688,-0.8684,-0.868,-0.8682,-0.8721,-0.8721,-0.8735,-0.8735,-0.8735]},{"header":{"parameterUnit":"m.s-1","parameterCategory":1,"la1":30.2991,"la2":30.254,"lo1":-89.0895,"lo2":-89.0444,"dy":0.0017,"dx":0.0017,"nx":28,"ny":28,"refTime":"2024-02-25T03:00:00:Z","depth":0,"parameterNumber":3,"parameterNumberName":"V-component_of_WINDS"},"data":[0,0,0,0,0,0,0,0,0,0,0,0,0,0,0,0,0,0,0,0,0,0,0,0,0,0,0,0,0,0,0,0,0,0,0,0,0,0,0,0,0,0,0,0,0,0,0,0,0,0,0,0,0,0,0,0,0,0,2.3218,2.3218,0,2.3198,2.3197,2.3197,2.3184,2.3184,2.3184,2.3184,2.3161,2.3161,2.316,0,0,0,0,0,0,0,0,0,0,0,0,0,2.3245,2.3244,2.3218,2.3218,2.3217,2.3198,2.3197,2.3197,2.3184,2.3184,2.3184,2.3184,2.3161,2.3161,2.316,0,0,0,0,0,0,0,0,0,0,0,0,0,2.3229,2.3244,2.3218,2.3209,2.3208,2.3198,2.3197,2.3197,2.3184,2.3184,2.3184,2.3184,2.3162,2.3161,2.316,2.3157,0,0,2.3158,2.3157,0,0,0,0,0,0,0,0,2.323,2.3228,2.321,2.3209,2.3208,2.3193,2.3198,2.3184,2.3184,2.3193,2.3184,2.3184,2.3172,2.317,2.3167,2.3156,2.3155,2.3158,2.3157,2.3157,2.3156,0,0,0,0,0,0,0,2.3231,2.3229,2.321,2.321,2.3209,2.3205,2.3203,2.3196,2.3183,2.3192,2.3191,2.3189,2.3171,2.3167,2.3166,2.3155,2.3158,2.3157,2.3156,2.3156,2.3142,2.3142,0,0,0,0,0,0,2.3234,2.323,2.321,2.3209,2.3219,2.3205,2.3202,2.3198,2.3183,2.3181,2.3189,2.3189,2.3169,2.3167,2.3165,2.3162,2.3157,2.3156,2.3155,2.3142,2.3142,2.3142,0,0,0,0,0,0,2.3235,2.3232,2.3211,2.322,2.3217,2.3205,2.32,2.3198,2.3194,2.3181,2.3179,2.3188,2.3169,2.3166,2.316,2.3161,2.3156,2.3155,2.3142,2.3142,2.3142,2.3154,0,0,0,0,0,0,2.3236,2.3233,2.3232,2.322,2.3216,2.3207,2.32,2.3198,2.3193,2.3192,2.3179,2.3177,2.3168,2.3161,2.3159,2.3159,2.3154,2.3142,2.3142,2.3142,2.3153,2.3155,2.3156,0,0,0,0,0,2.3237,2.3235,2.3232,2.3229,2.3215,2.3207,2.3205,2.3196,2.3193,2.3192,2.3184,2.3177,2.3161,2.316,2.3158,2.3158,2.3142,2.3142,2.3142,2.3153,2.3154,2.3155,0,0,0,0,0,0,2.3246,2.3233,2.3229,2.3224,2.3217,2.3204,2.3203,2.3197,2.319,2.3189,2.3178,2.3175,2.317,2.3163,2.3163,2.3155,2.315,2.315,2.316,2.3161,2.3162,2.3164,2.3154,0,0,0,0,0,2.3248,2.3243,2.3232,2.3228,2.3225,2.3215,2.3211,2.3205,2.3196,2.3193,2.3184,2.3176,2.3169,2.3164,2.3157,2.3153,2.315,2.3152,2.3153,2.3154,2.3153,2.3152,2.3152,2.3143,2.3143,2.3143,0,0,2.3251,2.3244,2.3241,2.323,2.3224,2.3219,2.3212,2.3206,2.3203,2.3192,2.3185,2.3179,2.3169,2.3163,2.3161,2.3158,2.3156,2.3154,2.3155,2.3154,2.3152,2.3153,2.3154,2.3143,2.3143,2.3143,0,0,2.3255,2.3248,2.3245,2.3239,2.323,2.3223,2.3223,2.3212,2.3207,2.3201,2.3193,2.3188,2.3176,2.317,2.3165,2.3168,2.3162,2.3166,2.3171,2.3169,2.317,2.317,2.3172,2.3173,2.3166,2.3166,2.3166,0,2.326,2.3252,2.3244,2.324,2.3235,2.3226,2.3223,2.3218,2.3206,2.3203,2.3201,2.3187,2.3179,2.3173,2.3174,2.317,2.3169,2.3167,2.3171,2.3171,2.3172,2.3173,2.3174,2.3166,2.3166,2.3166,2.3166,0,2.3259,2.3254,2.3253,2.3244,2.3239,2.3235,2.3226,2.3223,2.3217,2.3211,2.3205,2.3196,2.3188,2.3186,2.318,2.3179,2.3177,2.3173,2.3168,2.3173,2.3174,2.3175,2.3167,2.3167,2.3167,2.3166,0,0,2.3268,2.3255,2.3254,2.3251,2.324,2.3236,2.3232,2.3225,2.3222,2.3215,2.3212,2.3203,2.3199,2.3194,2.3187,2.3186,2.319,2.3181,2.3181,2.3184,2.3189,2.3193,2.3193,2.3186,2.3186,2.3186,2.319,0,2.327,2.3263,2.3256,2.3251,2.3247,2.3239,2.3236,2.3229,2.3224,2.3219,2.3212,2.3207,2.3202,2.3199,2.3197,2.3189,2.319,2.3189,2.3182,2.3182,2.3186,2.3194,2.3198,2.3202,2.319,2.319,2.319,0,2.3271,2.3266,2.3261,2.3253,2.3251,2.3248,2.3241,2.3237,2.323,2.3226,2.3221,2.3214,2.321,2.3206,2.32,2.3199,2.3196,2.3192,2.3192,2.3191,2.3187,2.3194,2.3203,2.3204,2.3191,2.3191,2.3191,0,2.3278,2.327,2.3266,2.3263,2.3253,2.3251,2.3247,2.324,2.3236,2.323,2.3228,2.3221,2.3218,2.3213,2.3205,2.3202,2.32,2.3195,2.3197,2.3197,2.3197,2.3197,2.3206,2.3194,2.3194,2.3194,2.3194,0,2.3282,2.3279,2.327,2.3267,2.3265,2.3257,2.3255,2.3249,2.3243,2.324,2.3232,2.323,2.3219,2.3215,2.3209,2.3206,2.3204,2.3201,2.3199,2.3201,2.3202,2.3199,2.3199,2.3194,2.3194,2.3194,2.3194,0,2.3289,2.3282,2.3278,2.327,2.3268,2.3266,2.3259,2.3256,2.3251,2.3247,2.3246,2.3237,2.3232,2.3224,2.3216,2.3211,2.321,2.3206,2.3212,2.3211,2.3214,2.3214,2.3222,2.3223,2.321,2.321,2.3211,0,2.3292,2.329,2.3282,2.328,2.3276,2.3272,2.3269,2.3261,2.3258,2.3251,2.325,2.3244,2.324,2.3232,2.3225,2.3219,2.3216,2.3219,2.3215,2.3218,2.3217,2.3217,2.3218,2.322,2.3221,2.3221,2.3221,0,2.3297,2.3294,2.329,2.3286,2.3283,2.3278,2.3274,2.3272,2.3263,2.3261,2.3256,2.3253,2.3246,2.3241,2.3234,2.3229,2.3224,2.3222,2.3223,2.3225,2.3229,2.3228,2.3216,2.3222,2.3222,2.3222,2.3222,2.3222,2.3302,2.3301,2.3296,2.3292,2.3288,2.3284,2.3282,2.3277,2.3273,2.3268,2.3263,2.3259,2.3253,2.3244,2.324,2.3237,2.3234,2.3234,2.3234,2.3235,2.3236,2.323,2.3235,2.3235,2.3235,2.3235,2.3235,0,2.3308,2.3305,2.3301,2.3296,2.3293,2.3289,2.3284,2.3282,2.3279,2.3274,2.327,2.3265,2.3261,2.3254,2.3249,2.3248,2.3245,2.3247,2.3247,2.3246,2.3238,2.3239,2.3249,2.3249,2.3249,2.3249,2.3249,2.3249,2.3311,2.3309,2.3305,2.3302,2.3298,2.3295,2.3292,2.3289,2.3285,2.3281,2.3278,2.3273,2.3268,2.3263,2.3259,2.3257,2.3256,2.3258,2.3256,2.3248,2.3247,2.3245,2.3246,2.3258,2.3258,2.3264,2.3264,2.3264]}]]